📊 Raw Sensor Data
Showing records 52951 to 52975 of 85,321 total
| ID | Distance (ft) | Battery V | Battery A | Int Temp (°F) | Int Humid (%) | Ext Temp (°F) | Solar V | RSSI | SNR | Time Stamp |
|---|---|---|---|---|---|---|---|---|---|---|
| 32383 | 12.9 | 3.83 | -5 | 48 | 39 | 50 | 0.00 | -79 | 8 | 02/14/2025 07:30 PM |
| 32382 | 12.9 | 3.78 | -5 | 48 | 39 | 50 | 0.10 | -80 | 8 | 02/14/2025 07:15 PM |
| 32381 | 12.9 | 3.84 | -5 | 49 | 40 | 50 | 0.00 | -79 | 8 | 02/14/2025 07:00 PM |
| 32380 | 12.9 | 3.77 | -5 | 50 | 40 | 51 | 0.00 | -79 | 8 | 02/14/2025 06:45 PM |
| 32379 | 13.0 | 3.78 | -5 | 50 | 41 | 52 | 0.00 | -78 | 8 | 02/14/2025 06:30 PM |
| 32378 | 13.0 | 3.84 | -5 | 51 | 42 | 53 | 0.10 | -78 | 8 | 02/14/2025 06:15 PM |
| 32377 | 12.9 | 3.78 | -5 | 53 | 43 | 53 | 0.80 | -77 | 8 | 02/14/2025 06:00 PM |
| 32376 | 12.9 | 3.83 | -10 | 55 | 42 | 54 | 4.00 | -78 | 7 | 02/14/2025 05:45 PM |
| 32375 | 12.9 | 3.87 | 9 | 59 | 41 | 56 | 4.50 | -77 | 8 | 02/14/2025 05:30 PM |
| 32374 | 12.9 | 3.87 | 24 | 62 | 40 | 57 | 4.50 | -78 | 8 | 02/14/2025 05:15 PM |
| 32373 | 12.9 | 3.78 | 0 | 63 | 41 | 58 | 5.10 | -78 | 8 | 02/14/2025 05:00 PM |
| 32372 | 13.0 | 3.78 | 0 | 67 | 39 | 59 | 5.10 | -78 | 8 | 02/14/2025 04:45 PM |
| 32371 | 13.1 | 3.79 | 0 | 68 | 38 | 61 | 5.10 | -77 | 8 | 02/14/2025 04:30 PM |
| 32370 | 13.0 | 4.06 | 0 | 71 | 36 | 61 | 5.10 | -77 | 8 | 02/14/2025 04:15 PM |
| 32369 | 13.0 | 3.92 | 0 | 70 | 37 | 62 | 5.10 | -77 | 8 | 02/14/2025 04:00 PM |
| 32368 | 13.0 | 3.79 | 0 | 69 | 38 | 64 | 5.10 | -77 | 8 | 02/14/2025 03:45 PM |
| 32367 | 13.0 | 3.79 | 0 | 68 | 39 | 60 | 5.10 | -78 | 8 | 02/14/2025 03:30 PM |
| 32366 | 13.1 | 3.79 | 0 | 78 | 33 | 62 | 5.10 | -77 | 8 | 02/14/2025 03:15 PM |
| 32365 | -- | 3.83 | 0 | 71 | 36 | 61 | 5.10 | -77 | 8 | 02/14/2025 03:00 PM |
| 32364 | -- | 3.89 | 0 | 63 | 41 | 59 | 5.10 | -77 | 8 | 02/14/2025 02:45 PM |
| 32363 | -- | 3.99 | 0 | 65 | 41 | 59 | 5.10 | -77 | 8 | 02/14/2025 02:30 PM |
| 32362 | 13.1 | 3.79 | 0 | 69 | 40 | 59 | 5.10 | -76 | 8 | 02/14/2025 02:15 PM |
| 32361 | 13.2 | 4.08 | 0 | 76 | 35 | 59 | 5.10 | -76 | 7 | 02/14/2025 02:00 PM |
| 32360 | 13.3 | 3.79 | 0 | 79 | 32 | 62 | 5.10 | -76 | 8 | 02/14/2025 01:45 PM |
| 32359 | 13.2 | 3.79 | 0 | 74 | 33 | 63 | 5.10 | -77 | 7 | 02/14/2025 01:30 PM |